• In Italy
  • List of Countries
  • For 7 days
  • Water Temperature
  • Satellite Maps
  • Weather Map
  • Weather Widgets
  • user-avatar
    Login

    Hourly Weather Dili

    Today, 17 January, Wednesday

    Time Temperature Precipitation Wind Pressure Humidity
    00:00 +28°C° 1 mm 3 mps 749 mmHg 89%
    01:00 +28°C° 1 mm 3 mps 749 mmHg 89%
    02:00 +28°C° 0 mm 3 mps 749 mmHg 89%
    03:00 +28°C° 0.7 mm 3 mps 749 mmHg 89%
    04:00 +28°C° 0.7 mm 3 mps 749 mmHg 89%
    05:00 +28°C° 0.7 mm 3 mps 749 mmHg 89%
    06:00 +29°C° 0.6 mm 3 mps 749 mmHg 86%
    07:00 +29°C° 0.6 mm 3 mps 749 mmHg 83%
    08:00 +30°C° 0 mm 3 mps 750 mmHg 80%
    09:00 +31°C° 0.8 mm 3 mps 750 mmHg 78%
    10:00 +31°C° 0.8 mm 3 mps 749 mmHg 76%
    11:00 +33°C° 0.8 mm 3 mps 749 mmHg 74%
    12:00 +33°C° 0.8 mm 3 mps 749 mmHg 75%
    13:00 +31°C° 0.8 mm 3 mps 749 mmHg 76%
    14:00 +31°C° 0.8 mm 3 mps 748 mmHg 77%
    15:00 +30°C° 1.4 mm 3 mps 749 mmHg 79%
    16:00 +30°C° 1.4 mm 3 mps 749 mmHg 82%
    17:00 +29°C° 1.4 mm 3 mps 749 mmHg 85%
    18:00 +29°C° 1.3 mm 3 mps 749 mmHg 86%
    19:00 +29°C° 1.3 mm 3 mps 749 mmHg 88%
    20:00 +28°C° 1.3 mm 3 mps 750 mmHg 89%
    21:00 +28°C° 0.5 mm 3 mps 750 mmHg 89%
    22:00 +28°C° 0.5 mm 3 mps 750 mmHg 89%
    23:00 +28°C° 0.5 mm 3 mps 750 mmHg 89%

    Tomorrow, 18 January, Thursday

    Time Temperature Precipitation Wind Pressure Humidity
    00:00 +28°C° 0.4 mm 3 mps 750 mmHg 89%
    01:00 +28°C° 0.4 mm 3 mps 749 mmHg 88%
    02:00 +28°C° 0.4 mm 3 mps 749 mmHg 88%
    03:00 +28°C° 0.5 mm 3 mps 749 mmHg 88%
    04:00 +28°C° 0.5 mm 4 mps 749 mmHg 88%
    05:00 +28°C° 0.5 mm 4 mps 749 mmHg 88%
    06:00 +29°C° 0.4 mm 4 mps 749 mmHg 85%
    07:00 +29°C° 0.4 mm 4 mps 750 mmHg 82%
    08:00 +30°C° 0.4 mm 4 mps 750 mmHg 79%
    09:00 +32°C° 0.9 mm 4 mps 750 mmHg 77%
    10:00 +32°C° 0.9 mm 4 mps 750 mmHg 75%
    11:00 +33°C° 0.9 mm 4 mps 750 mmHg 74%
    12:00 +32°C° 1.7 mm 4 mps 749 mmHg 76%
    13:00 +32°C° 1.7 mm 4 mps 749 mmHg 78%
    14:00 +30°C° 1.7 mm 4 mps 749 mmHg 80%
    15:00 +30°C° 1.6 mm 4 mps 749 mmHg 81%
    16:00 +30°C° 1.6 mm 3 mps 749 mmHg 83%
    17:00 +29°C° 1.6 mm 3 mps 749 mmHg 84%
    18:00 +29°C° 1.7 mm 3 mps 749 mmHg 86%
    19:00 +29°C° 1.7 mm 3 mps 750 mmHg 88%
    20:00 +28°C° 1.7 mm 3 mps 750 mmHg 89%
    21:00 +28°C° 1.3 mm 4 mps 750 mmHg 90%
    22:00 +28°C° 1.3 mm 4 mps 750 mmHg 91%
    23:00 +28°C° 1.3 mm 4 mps 750 mmHg 91%

    Day after tomorrow, 19 January, Friday

    Time Temperature Precipitation Wind Pressure Humidity
    00:00 +28°C° 1.1 mm 4 mps 750 mmHg 92%
    01:00 +28°C° 1.1 mm 4 mps 749 mmHg 92%
    02:00 +28°C° 1.1 mm 4 mps 749 mmHg 92%
    03:00 +28°C° 1 mm 4 mps 749 mmHg 92%
    04:00 +28°C° 1 mm 4 mps 749 mmHg 92%
    05:00 +28°C° 1 mm 4 mps 749 mmHg 92%
    06:00 +28°C° 0.8 mm 4 mps 749 mmHg 89%
    07:00 +29°C° 0.8 mm 4 mps 750 mmHg 87%
    08:00 +30°C° 0.8 mm 4 mps 750 mmHg 84%
    09:00 +30°C° 0.6 mm 4 mps 750 mmHg 82%
    10:00 +32°C° 0.6 mm 4 mps 750 mmHg 80%
    11:00 +32°C° 0.6 mm 4 mps 750 mmHg 78%
    12:00 +32°C° 0.7 mm 4 mps 749 mmHg 78%
    13:00 +32°C° 0.7 mm 4 mps 748 mmHg 78%
    14:00 +32°C° 0.7 mm 4 mps 748 mmHg 79%
    15:00 +30°C° 0.8 mm 4 mps 748 mmHg 81%
    16:00 +30°C° 0.8 mm 4 mps 748 mmHg 83%
    17:00 +29°C° 0.8 mm 4 mps 748 mmHg 86%
    18:00 +29°C° 0.5 mm 4 mps 748 mmHg 87%
    19:00 +29°C° 0.5 mm 4 mps 749 mmHg 88%
    20:00 +28°C° 0.5 mm 4 mps 749 mmHg 89%
    21:00 +28°C° 0.5 mm 4 mps 750 mmHg 90%
    22:00 +28°C° 0.5 mm 3 mps 750 mmHg 90%
    23:00 +28°C° 0.5 mm 3 mps 750 mmHg 90%

    20 January, Saturday

    Time Temperature Precipitation Wind Pressure Humidity
    00:00 +28°C° 0.4 mm 3 mps 749 mmHg 90%
    01:00 +28°C° 0.4 mm 3 mps 749 mmHg 90%
    02:00 +27°C° 0.4 mm 3 mps 748 mmHg 89%
    03:00 +27°C° 0.1 mm 3 mps 748 mmHg 89%
    04:00 +27°C° 0.1 mm 3 mps 748 mmHg 89%
    05:00 +27°C° 0.1 mm 4 mps 748 mmHg 88%
    06:00 +28°C° 0.1 mm 3 mps 749 mmHg 85%
    07:00 +29°C° 0.1 mm 3 mps 749 mmHg 82%
    08:00 +30°C° 0.1 mm 3 mps 750 mmHg 79%
    09:00 +31°C° 0.1 mm 3 mps 749 mmHg 74%
    10:00 +34°C° 0.1 mm 3 mps 749 mmHg 69%
    11:00 +35°C° 0.1 mm 4 mps 749 mmHg 64%
    12:00 +35°C° 0.4 mm 4 mps 748 mmHg 67%
    13:00 +34°C° 0.4 mm 4 mps 748 mmHg 69%
    14:00 +34°C° 0.4 mm 4 mps 747 mmHg 72%
    15:00 +33°C° 0.6 mm 4 mps 747 mmHg 75%
    16:00 +32°C° 0.6 mm 4 mps 747 mmHg 79%
    17:00 +30°C° 0.6 mm 4 mps 747 mmHg 83%
    18:00 +30°C° 0.5 mm 3 mps 748 mmHg 85%
    19:00 +29°C° 0.5 mm 3 mps 748 mmHg 87%
    20:00 +29°C° 0.5 mm 3 mps 749 mmHg 89%
    21:00 +28°C° 0.3 mm 3 mps 749 mmHg 89%
    22:00 +28°C° 0.3 mm 3 mps 749 mmHg 89%
    23:00 +28°C° 0.3 mm 3 mps 749 mmHg 89%

    21 January, Sunday

    Time Temperature Precipitation Wind Pressure Humidity
    00:00 +28°C° 0.2 mm 3 mps 748 mmHg 89%
    01:00 +28°C° 0.2 mm 3 mps 748 mmHg 89%
    02:00 +28°C° 0.2 mm 3 mps 747 mmHg 90%
    03:00 +28°C° 0.3 mm 3 mps 747 mmHg 89%
    04:00 +28°C° 0.3 mm 3 mps 748 mmHg 89%
    05:00 +28°C° 0.3 mm 3 mps 748 mmHg 89%
    06:00 +29°C° 0.2 mm 3 mps 748 mmHg 86%
    07:00 +29°C° 0.2 mm 3 mps 749 mmHg 83%
    08:00 +30°C° 0.2 mm 3 mps 749 mmHg 79%
    09:00 +33°C° 0.1 mm 3 mps 749 mmHg 74%
    10:00 +34°C° 0.1 mm 3 mps 749 mmHg 70%
    11:00 +35°C° 0.1 mm 4 mps 748 mmHg 65%
    12:00 +35°C° 0.2 mm 4 mps 748 mmHg 65%
    13:00 +35°C° 0.2 mm 4 mps 747 mmHg 66%
    14:00 +35°C° 0.2 mm 4 mps 747 mmHg 66%
    15:00 +34°C° 0.1 mm 4 mps 747 mmHg 68%
    16:00 +33°C° 0.1 mm 4 mps 747 mmHg 70%
    17:00 +33°C° 0.1 mm 4 mps 747 mmHg 72%
    18:00 +32°C° 0 mm 4 mps 747 mmHg 75%
    19:00 +30°C° 0 mm 4 mps 748 mmHg 79%
    20:00 +29°C° 0 mm 3 mps 748 mmHg 83%
    21:00 +29°C° 0 mm 3 mps 748 mmHg 83%
    22:00 +29°C° 0 mm 3 mps 749 mmHg 83%
    23:00 +29°C° 0 mm 3 mps 749 mmHg 83%

    22 January, Monday

    Time Temperature Precipitation Wind Pressure Humidity
    00:00 +28°C° 0 mm 3 mps 748 mmHg 83%
    01:00 +28°C° 0 mm 3 mps 748 mmHg 83%
    02:00 +28°C° 0 mm 4 mps 747 mmHg 83%
    03:00 +28°C° 0 mm 4 mps 747 mmHg 83%
    04:00 +28°C° 0 mm 4 mps 747 mmHg 84%
    05:00 +28°C° 0 mm 3 mps 748 mmHg 84%
    06:00 +29°C° 0.2 mm 4 mps 748 mmHg 81%
    07:00 +30°C° 0.2 mm 4 mps 749 mmHg 78%
    08:00 +32°C° 0.2 mm 4 mps 749 mmHg 75%
    09:00 +33°C° 0.2 mm 4 mps 749 mmHg 69%
    10:00 +34°C° 0.2 mm 4 mps 749 mmHg 64%
    11:00 +36°C° 0.2 mm 4 mps 748 mmHg 58%
    12:00 +35°C° 0.4 mm 4 mps 748 mmHg 60%
    13:00 +35°C° 0.4 mm 4 mps 747 mmHg 62%
    14:00 +35°C° 0.4 mm 4 mps 747 mmHg 63%
    15:00 +34°C° 0.2 mm 4 mps 747 mmHg 67%
    16:00 +33°C° 0.2 mm 4 mps 747 mmHg 70%
    17:00 +33°C° 0.2 mm 4 mps 747 mmHg 73%
    18:00 +32°C° 0 mm 4 mps 748 mmHg 76%
    19:00 +30°C° 0 mm 4 mps 748 mmHg 80%
    20:00 +29°C° 0 mm 3 mps 748 mmHg 83%
    21:00 +29°C° 0.1 mm 3 mps 748 mmHg 83%
    22:00 +29°C° 0.1 mm 3 mps 749 mmHg 83%
    23:00 +29°C° 0.1 mm 3 mps 749 mmHg 83%
    Show more